Hourly Weather Bolshinka

Today, 16 June, Wednesday

Time Temperature Precipitation Wind Pressure Humidity
00:00 +22°C° 0 mm 1 mps 752 mmHg 77%
01:00 +21°C° 0 mm 1 mps 753 mmHg 78%
02:00 +19°C° 0 mm 0 mps 753 mmHg 80%
03:00 +19°C° 0 mm 0 mps 753 mmHg 81%
04:00 +19°C° 0 mm 0 mps 753 mmHg 80%
05:00 +20°C° 0 mm 0 mps 753 mmHg 78%
06:00 +20°C° 0 mm 0 mps 753 mmHg 76%
07:00 +22°C° 0 mm 0 mps 754 mmHg 71%
08:00 +25°C° 0 mm 1 mps 754 mmHg 66%
09:00 +27°C° 0 mm 1 mps 754 mmHg 61%
10:00 +28°C° 0 mm 1 mps 754 mmHg 57%
11:00 +29°C° 0 mm 1 mps 754 mmHg 53%
12:00 +30°C° 0 mm 1 mps 754 mmHg 48%
13:00 +30°C° 0 mm 1 mps 754 mmHg 47%
14:00 +30°C° 0 mm 1 mps 754 mmHg 45%
15:00 +31°C° 0 mm 1 mps 754 mmHg 44%
16:00 +31°C° 0 mm 1 mps 754 mmHg 46%
17:00 +31°C° 0 mm 2 mps 754 mmHg 48%
18:00 +30°C° 0 mm 2 mps 754 mmHg 50%
19:00 +29°C° 0 mm 2 mps 754 mmHg 55%
20:00 +27°C° 0 mm 3 mps 754 mmHg 60%
21:00 +25°C° 0 mm 3 mps 754 mmHg 64%
22:00 +25°C° 0 mm 3 mps 754 mmHg 67%
23:00 +24°C° 0 mm 3 mps 754 mmHg 70%

Tomorrow, 17 June, Thursday

Time Temperature Precipitation Wind Pressure Humidity
00:00 +22°C° 0 mm 4 mps 754 mmHg 72%
01:00 +22°C° 0.1 mm 4 mps 754 mmHg 74%
02:00 +22°C° 0.1 mm 4 mps 754 mmHg 75%
03:00 +21°C° 0.1 mm 5 mps 754 mmHg 77%
04:00 +21°C° 0 mm 5 mps 754 mmHg 78%
05:00 +22°C° 0 mm 5 mps 754 mmHg 79%
06:00 +22°C° 0 mm 6 mps 755 mmHg 80%
07:00 +23°C° 0 mm 6 mps 755 mmHg 76%
08:00 +26°C° 0 mm 6 mps 755 mmHg 71%
09:00 +27°C° 0 mm 7 mps 755 mmHg 66%
10:00 +28°C° 0 mm 7 mps 755 mmHg 62%
11:00 +29°C° 0 mm 7 mps 756 mmHg 58%
12:00 +30°C° 0 mm 6 mps 756 mmHg 54%
13:00 +30°C° 0 mm 6 mps 756 mmHg 53%
14:00 +30°C° 0 mm 6 mps 756 mmHg 52%
15:00 +32°C° 0 mm 6 mps 756 mmHg 51%
16:00 +30°C° 0 mm 6 mps 756 mmHg 55%
17:00 +29°C° 0 mm 5 mps 756 mmHg 59%
18:00 +28°C° 0 mm 5 mps 756 mmHg 63%
19:00 +28°C° 0 mm 5 mps 756 mmHg 65%
20:00 +27°C° 0 mm 5 mps 757 mmHg 68%
21:00 +26°C° 0 mm 6 mps 757 mmHg 70%
22:00 +25°C° 0.1 mm 5 mps 757 mmHg 71%
23:00 +25°C° 0.1 mm 5 mps 758 mmHg 71%

Day after tomorrow, 18 June, Friday

Time Temperature Precipitation Wind Pressure Humidity
00:00 +23°C° 0.1 mm 5 mps 758 mmHg 72%
01:00 +22°C° 0.1 mm 5 mps 758 mmHg 73%
02:00 +22°C° 0.1 mm 4 mps 759 mmHg 74%
03:00 +21°C° 0.1 mm 4 mps 759 mmHg 75%
04:00 +20°C° 0 mm 5 mps 759 mmHg 75%
05:00 +20°C° 0 mm 5 mps 759 mmHg 74%
06:00 +20°C° 0 mm 6 mps 760 mmHg 73%
07:00 +20°C° 0 mm 6 mps 760 mmHg 70%
08:00 +21°C° 0 mm 7 mps 760 mmHg 66%
09:00 +22°C° 0 mm 7 mps 760 mmHg 63%
10:00 +23°C° 0 mm 7 mps 760 mmHg 58%
11:00 +26°C° 0 mm 7 mps 761 mmHg 53%
12:00 +27°C° 0 mm 7 mps 761 mmHg 48%
13:00 +27°C° 0 mm 7 mps 761 mmHg 47%
14:00 +27°C° 0 mm 7 mps 761 mmHg 47%
15:00 +28°C° 0 mm 7 mps 761 mmHg 46%
16:00 +27°C° 0 mm 6 mps 761 mmHg 50%
17:00 +27°C° 0 mm 5 mps 761 mmHg 53%
18:00 +26°C° 0 mm 5 mps 761 mmHg 56%
19:00 +25°C° 0 mm 5 mps 761 mmHg 59%
20:00 +23°C° 0 mm 5 mps 761 mmHg 62%
21:00 +21°C° 0 mm 5 mps 762 mmHg 65%
22:00 +21°C° 0 mm 5 mps 762 mmHg 62%
23:00 +21°C° 0 mm 6 mps 762 mmHg 60%

19 June, Saturday

Time Temperature Precipitation Wind Pressure Humidity
00:00 +20°C° 0 mm 6 mps 762 mmHg 58%
01:00 +20°C° 0 mm 6 mps 762 mmHg 59%
02:00 +19°C° 0 mm 6 mps 762 mmHg 59%
03:00 +19°C° 0 mm 6 mps 762 mmHg 60%
04:00 +19°C° 0 mm 6 mps 763 mmHg 63%
05:00 +19°C° 0 mm 6 mps 763 mmHg 66%
06:00 +17°C° 0 mm 6 mps 763 mmHg 69%
07:00 +20°C° 0 mm 7 mps 763 mmHg 64%
08:00 +21°C° 0 mm 8 mps 764 mmHg 59%
09:00 +23°C° 0 mm 8 mps 764 mmHg 53%
10:00 +24°C° 0 mm 8 mps 764 mmHg 50%
11:00 +26°C° 0 mm 8 mps 763 mmHg 47%
12:00 +27°C° 0 mm 7 mps 763 mmHg 44%
13:00 +27°C° 0 mm 7 mps 763 mmHg 43%
14:00 +28°C° 0 mm 7 mps 763 mmHg 41%
15:00 +28°C° 0 mm 7 mps 763 mmHg 40%
16:00 +28°C° 0 mm 7 mps 763 mmHg 43%
17:00 +27°C° 0 mm 6 mps 763 mmHg 46%
18:00 +26°C° 0 mm 6 mps 762 mmHg 49%
19:00 +25°C° 0 mm 5 mps 763 mmHg 53%
20:00 +22°C° 0 mm 5 mps 763 mmHg 58%
21:00 +20°C° 0 mm 4 mps 763 mmHg 62%
22:00 +20°C° 0 mm 5 mps 763 mmHg 61%
23:00 +19°C° 0 mm 5 mps 763 mmHg 59%

20 June, Sunday

Time Temperature Precipitation Wind Pressure Humidity
00:00 +19°C° 0 mm 5 mps 763 mmHg 57%
01:00 +17°C° 0 mm 5 mps 763 mmHg 58%
02:00 +17°C° 0 mm 5 mps 763 mmHg 58%
03:00 +17°C° 0 mm 5 mps 763 mmHg 59%
04:00 +17°C° 0 mm 5 mps 763 mmHg 61%
05:00 +17°C° 0 mm 5 mps 763 mmHg 62%
06:00 +17°C° 0 mm 5 mps 763 mmHg 64%
07:00 +20°C° 0 mm 6 mps 762 mmHg 59%
08:00 +22°C° 0 mm 7 mps 762 mmHg 54%
09:00 +24°C° 0 mm 7 mps 762 mmHg 50%
10:00 +27°C° 0 mm 7 mps 762 mmHg 46%
11:00 +28°C° 0 mm 7 mps 761 mmHg 42%
12:00 +29°C° 0 mm 7 mps 761 mmHg 38%
13:00 +30°C° 0 mm 7 mps 761 mmHg 36%
14:00 +32°C° 0 mm 7 mps 760 mmHg 35%
15:00 +32°C° 0 mm 7 mps 760 mmHg 34%
16:00 +32°C° 0 mm 6 mps 760 mmHg 38%
17:00 +30°C° 0 mm 6 mps 759 mmHg 42%
18:00 +30°C° 0 mm 5 mps 759 mmHg 46%
19:00 +28°C° 0 mm 5 mps 759 mmHg 50%
20:00 +26°C° 0 mm 5 mps 759 mmHg 53%
21:00 +23°C° 0 mm 5 mps 759 mmHg 57%
22:00 +23°C° 0 mm 5 mps 759 mmHg 54%
23:00 +22°C° 0 mm 5 mps 759 mmHg 51%

21 June, Monday

Time Temperature Precipitation Wind Pressure Humidity
00:00 +22°C° 0 mm 4 mps 759 mmHg 48%
01:00 +21°C° 0 mm 4 mps 759 mmHg 49%
02:00 +20°C° 0 mm 4 mps 759 mmHg 50%
03:00 +20°C° 0 mm 4 mps 759 mmHg 51%
04:00 +20°C° 0 mm 4 mps 759 mmHg 54%
05:00 +20°C° 0 mm 4 mps 759 mmHg 57%
06:00 +20°C° 0 mm 4 mps 759 mmHg 61%
07:00 +23°C° 0 mm 5 mps 759 mmHg 54%
08:00 +26°C° 0 mm 6 mps 759 mmHg 46%
09:00 +28°C° 0 mm 6 mps 759 mmHg 39%
10:00 +30°C° 0 mm 6 mps 759 mmHg 36%
11:00 +32°C° 0 mm 7 mps 759 mmHg 32%
12:00 +33°C° 0 mm 7 mps 759 mmHg 29%
13:00 +34°C° 0 mm 7 mps 758 mmHg 28%
14:00 +34°C° 0 mm 6 mps 758 mmHg 27%
15:00 +35°C° 0 mm 6 mps 758 mmHg 27%
16:00 +34°C° 0 mm 6 mps 757 mmHg 31%
17:00 +33°C° 0 mm 5 mps 757 mmHg 35%
18:00 +33°C° 0 mm 4 mps 757 mmHg 40%
19:00 +29°C° 0 mm 4 mps 757 mmHg 44%
20:00 +27°C° 0 mm 4 mps 757 mmHg 49%
21:00 +25°C° 0 mm 4 mps 757 mmHg 53%
22:00 +25°C° 0 mm 4 mps 757 mmHg 54%
23:00 +23°C° 0 mm 4 mps 757 mmHg 54%
Show more